Powrót do katalogu

SL-8 DEB

AktywnyLEO
NORAD 22840·DEBRIS·🇷🇺 Russia

Wystrzelony Feb 12, 1991 z Plesetsk Cosmodrome

Loading…

Następne Przeloty (najbliższe 24 godziny)

TLE

ŚwieżeSource: Space-Track

Epoka: Sep 14, 2026, 05:39 UTC

1 22840U 91009CK  26257.23575060  .00000226  00000-0  17265-2 0  9998
2 22840  73.9553 188.0602 0169635   5.3578 148.6160 12.39996829540691

Śledź SL-8 DEB w czasie rzeczywistym z AllMySat

Download on the App Store